#timestamp,LO_Frequency,Hit,StdDev 
1456322415.1,286047005.4,N
1456322416.0,286047005.4,N
1456322435.8,286047004.6,N
1456322455.6,286047008.2,N
1456322475.5,286047008.0,N
1456322495.3,286047006.9,N
1456322515.1,286047009.1,Y
1456322535.9,286047005.9,P
1456322555.7,286047003.6,N
1456322575.5,286047001.0,N
1456322595.4,286047002.4,N
1456322615.2,286046996.5,N
1456322635.0,286046995.1,N
1456322635.9,286046995.1,N
1456322655.8,286046996.9,N
1456322675.6,286047000.1,N
1456322695.4,286047000.0,N
1456322715.3,286047000.9,N
1456322735.1,286047002.1,N
1456322736.0,286047002.1,N
1456322755.8,286047004.0,N
1456322775.7,286047002.1,N
1456322795.5,286047001.8,N
1456322815.3,286047002.0,N
1456322835.1,286047002.0,N
1456322855.9,286047004.3,N
1456322875.7,286047001.4,N
1456322895.5,286047001.6,N
1456322915.4,286047001.0,N
1456322935.2,286047000.6,N
1456322955.0,286047000.1,N
1456322955.9,286047000.1,N
1456322975.8,286047001.6,N
1456322995.6,286047004.2,N
1456323015.4,286047003.0,N
1456323035.3,286047002.0,N
1456323055.1,286047000.7,N
1456323056.0,286047000.7,N
1456323075.8,286047002.7,N
1456323095.7,286047002.8,N
1456323115.5,286047002.8,N
1456323135.3,286047003.3,N
1456323155.2,286047002.4,N
1456323175.9,286047000.8,N
1456323195.7,286047000.5,N
1456323215.5,286046998.0,N
1456323235.4,286046999.3,N
1456323255.2,286046999.1,N
1456323275.0,286047000.1,N
1456323275.9,286047000.1,N
1456323295.8,286047000.7,N
1456323315.6,286046997.2,N
1456323335.4,286046994.9,Y
1456323355.3,286046996.2,P
1456323375.1,286046992.9,N
1456323395.8,286046993.8,N
1456323415.7,286046995.7,N
1456323435.5,286046997.8,N
1456323455.3,286046998.2,N
1456323475.2,286046997.0,N
1456323495.9,286046996.5,N
1456323515.7,286046998.7,N
1456323535.6,286046998.1,N
1456323555.4,286046998.8,N
1456323575.2,286046998.7,N
1456323595.1,286047000.3,N
1456323596.0,286047000.3,N
1456323615.8,286047000.7,N
1456323635.6,286047000.5,N
1456323655.5,286047002.2,N
1456323675.3,286047001.6,N
1456323695.1,286047004.1,N
1456323715.8,286047000.5,N
1456323735.7,286047001.1,N
1456323755.5,286046999.7,N
1456323775.3,286047000.1,N
1456323795.2,286047002.1,N
1456323815.9,286047002.4,N
1456323835.7,286047004.7,N
1456323855.6,286047001.3,N
1456323875.4,286046998.4,N
1456323895.2,286046997.3,N
1456323915.1,286046995.0,N
1456323916.0,286046995.0,N
1456323935.8,286046999.3,N
1456323955.6,286046999.5,N
1456323975.5,286047002.4,N
1456323995.3,286047005.7,N
1456324015.1,286047002.7,N
1456324035.8,286046999.8,N
1456324055.7,286047003.7,N
1456324075.5,286047003.4,N
1456324095.3,286047003.5,N
1456324115.2,286047005.7,N
1456324135.0,286047009.2,Y
1456324135.9,286047009.2,P
1456324155.8,286047008.7,N
1456324175.6,286047005.2,N
1456324195.4,286047003.2,N
1456324215.2,286047005.9,N
1456324235.1,286047004.6,N
1456324236.0,286047004.6,N
1456324255.8,286047004.5,N
1456324275.7,286047008.8,Y
1456324295.5,286047000.1,P
1456324315.3,286047000.0,N
1456324335.1,286046997.3,N
1456324355.9,286046994.0,N
1456324375.7,286046996.2,N
1456324395.5,286046996.2,N
1456324415.4,286046991.6,N
1456324435.2,286046990.1,N
1456324455.0,286046987.2,N
1456324455.9,286046987.2,N
1456324475.8,286046983.9,N
1456324495.6,286046984.7,N
1456324515.4,286046985.1,N
1456324535.3,286046982.6,N
1456324555.1,286046983.5,N
1456324556.0,286046983.5,N
1456324575.8,286046983.6,N
1456324595.7,286046978.2,Y
1456324615.5,286046984.7,P
1456324635.3,286046981.1,P
1456324655.2,286046978.9,P
1456324675.9,286046976.0,Y
1456324695.7,286046992.6,P
1456324715.6,286046994.2,N
1456324735.4,286046992.7,N
1456324755.2,286046987.3,Y
1456324775.1,286046998.7,P
1456324776.0,286046998.7,N
1456324795.8,286047001.0,N
1456324815.6,286046998.1,N
1456324835.5,286046999.6,N
1456324855.3,286046995.1,N
1456324875.1,286046997.0,N
1456324895.8,286046998.9,N
1456324915.7,286046996.9,N
1456324935.5,286046993.7,N
1456324955.3,286046997.6,N
1456324975.2,286046996.9,N
1456324995.0,286046995.9,N
1456324995.9,286046995.9,N
1456325015.7,286047001.2,N
1456325035.6,286046998.0,N
1456325055.4,286046993.7,N
1456325075.2,286046995.1,N
1456325095.1,286046993.7,N
1456325096.0,286046993.7,N
1456325115.8,286046994.4,N
1456325135.6,286046994.2,N
1456325155.5,286046993.7,N
1456325175.3,286046993.4,N
1456325195.1,286046999.1,N
1456325215.9,286046997.5,N
1456325235.7,286046992.5,N
1456325255.5,286046993.9,N
1456325275.3,286046996.4,N
1456325295.2,286046995.7,N
1456325315.0,286046993.8,N
1456325315.9,286046993.8,N
1456325335.7,286046996.2,N
1456325355.6,286046995.0,N
1456325375.4,286047000.5,N
1456325395.2,286046998.7,N
1456325415.1,286046995.5,N
1456325416.0,286046995.5,N
1456325435.8,286046993.8,N
1456325455.6,286046994.6,N
1456325475.5,286046995.8,N
1456325495.3,286046997.9,N
1456325515.1,286046997.1,N
1456325535.9,286047000.6,N
1456325555.7,286047000.3,N
1456325575.5,286046999.3,N
1456325595.4,286047001.0,N
1456325615.2,286046998.7,N
1456325635.0,286047000.6,N
1456325635.9,286047000.6,N
1456325655.7,286047000.5,N
1456325675.6,286046999.6,N
1456325695.4,286046995.5,N
1456325715.2,286046995.5,N
1456325735.1,286046997.9,N
1456325736.0,286046997.9,N
1456325755.8,286046995.1,N
1456325775.6,286046999.4,N
1456325795.5,286046999.1,N
1456325815.3,286046995.2,N
1456325835.1,286046995.6,N
1456325855.9,286046995.6,N
1456325875.7,286046998.0,N
1456325895.5,286046993.7,N
1456325915.4,286046992.5,Y
1456325935.2,286046991.7,P
1456325955.0,286046993.6,N
1456325955.9,286046993.6,N
1456325975.8,286046994.9,N
1456325995.6,286046994.4,N
